This demonstration page uses our WeatherBlox Daily Observations layout. Learn more.

Hourly Observations for August 17, 2018

Temp ( °F °C ) Dew Point ( °F °C ) Humidity (%) Winds ( mph kmh ) Pressure ( in mb ) Visibility ( mi km ) Precip ( " mm )
12:15 am 00:15 Clear 65 18.4 64 17.9 97 97 Calm 30.06 1018 10 16.09344 0 0
12:35 am 00:35 Clear 65 18.6 64 17.9 96 96 Calm 30.06 1018 10 16.09344 0 0
12:55 am 00:55 Clear 64 18 64 17.5 97 97 ESE 5 7 30.06 1018 10 16.09344 0 0
1:15 am 01:15 Clear 64 18 64 17.5 97 97 Calm 30.06 1018 10 16.09344 0 0
1:35 am 01:35 Clear 65 18.6 64 17.8 95 95 Calm 30.06 1018 10 16.09344 0 0
1:55 am 01:55 Clear 65 18.3 64 17.5 95 95 Calm 30.06 1018 10 16.09344 0 0
2:15 am 02:15 Clear 64 18 64 17.6 98 98 Calm 30.06 1018 10 16.09344 0 0
2:35 am 02:35 Clear 64 17.8 64 17.5 98 98 Calm 30.06 1018 10 16.09344 0 0
2:55 am 02:55 Clear 63 17.1 62 16.8 98 98 Calm 30.09 1019 10 16.09344 0 0
3:15 am 03:15 Clear 63 17 62 16.8 99 99 Calm 30.09 1019 10 16.09344 0 0
3:35 am 03:35 Clear 61 16.1 61 15.9 99 99 Calm 30.09 1019 10 16.09344 0 0
3:55 am 03:55 Clear 61 16 61 16 100 100 Calm 30.09 1019 10 16.09344 0 0
4:15 am 04:15 Clear 62 16.4 62 16.4 100 100 Calm 30.09 1019 10 16.09344 0 0
4:35 am 04:35 Clear 61 16.1 61 16.1 100 100 Calm 30.09 1019 10 16.09344 0 0
4:55 am 04:55 Clear 60 15.6 60 15.5 99 99 Calm 30.09 1019 10 16.09344 0 0
5:15 am 05:15 Clear 60 15.6 60 15.6 100 100 Calm 30.09 1019 7 11.265408 0 0
5:35 am 05:35 Clear with Mist and Fog 60 15.6 60 15.6 100 100 Calm 30.09 1019 5 8.04672 0 0
5:55 am 05:55 Clear with Mist and Fog 60 15.3 60 15.3 100 100 Calm 30.09 1019 4 6.437376 0 0
6:15 am 06:15 Clear with Mist and Fog 60 15.5 60 15.5 100 100 Calm 30.09 1019 4 6.437376 0 0
6:35 am 06:35 Clear with Mist and Fog 59 15.1 59 15.1 100 100 Calm 30.09 1019 4 6.437376 0 0
6:55 am 06:55 Sunny with Mist and Fog 59 15.1 59 15.1 100 100 Calm 30.09 1019 3 4.828032 0 0
7:15 am 07:15 Sunny with Mist and Fog 58 14.7 58 14.7 100 100 Calm 30.09 1019 2 3.218688 0 0
7:35 am 07:35 Sunny with Mist and Fog 60 15.6 60 15.6 100 100 Calm 30.09 1019 2.5 4.02336 0 0
7:55 am 07:55 Sunny with Mist and Fog 63 17 63 17 100 100 Calm 30.09 1019 2.5 4.02336 0 0
8:15 am 08:15 Sunny with Mist and Fog 64 17.6 64 17.6 100 100 NE 5 7 30.06 1018 2 3.218688 0 0
8:35 am 08:35 Sunny with Mist and Fog 65 18.5 65 18.5 100 100 Calm 30.06 1018 2.5 4.02336 0 0
8:55 am 08:55 Sunny with Mist and Fog 67 19.2 66 18.9 98 98 Calm 30.09 1019 4 6.437376 0 0
9:15 am 09:15 Sunny 68 20.2 67 19.3 95 95 Calm 30.09 1019 7 11.265408 0 0
9:35 am 09:35 Sunny 69 20.8 67 19.5 92 92 Calm 30.09 1019 7 11.265408 0 0
9:55 am 09:55 Partly Cloudy 71 21.5 67 19.6 89 89 Calm 30.06 1018 10 16.09344 0 0
10:15 am 10:15 Mostly Cloudy 71 21.7 68 19.8 89 89 Calm 30.06 1018 10 16.09344 0 0
10:35 am 10:35 Mostly Cloudy 72 22.2 67 19.6 85 85 Calm 30.06 1018 10 16.09344 0 0
10:55 am 10:55 Partly Cloudy 74 23.1 68 19.9 82 82 Calm 30.06 1018 10 16.09344 0 0
11:15 am 11:15 Partly Cloudy 74 23.6 67 19.4 77 77 Calm 30.06 1018 10 16.09344 0 0
11:35 am 11:35 Partly Cloudy 76 24.3 67 19.5 75 75 Calm 30.06 1018 10 16.09344 0 0
11:55 am 11:55 Sunny 76 24.2 66 19 73 73 Calm 30.06 1018 10 16.09344 0 0
12:15 pm 12:15 Partly Cloudy 77 24.8 68 19.8 74 74 WNW 3 6 30.03 1017 10 16.09344 0 0
12:35 pm 12:35 Partly Cloudy 77 25.1 67 19.6 72 72 NW 3 6 30.03 1017 10 16.09344 0 0
12:55 pm 12:55 Sunny 77 25.2 68 19.8 72 72 Calm 30.03 1017 10 16.09344 0 0
1:15 pm 13:15 Partly Cloudy 78 25.5 67 19.7 70 70 ENE 3 6 30.03 1017 10 16.09344 0 0
1:35 pm 13:35 Mostly Cloudy 78 25.7 67 19.7 70 70 ENE 3 6 30 1016 10 16.09344 0 0
1:55 pm 13:55 Mostly Cloudy 78 25.8 67 19.4 68 68 ENE 6 9 30 1016 10 16.09344 0 0
2:15 pm 14:15 Mostly Cloudy 78 25.5 67 19.4 69 69 E 5 7 30 1016 10 16.09344 0 0
2:35 pm 14:35 Mostly Cloudy 80 26.7 67 19.5 65 65 ENE 5 7 30 1016 10 16.09344 0 0
2:55 pm 14:55 Mostly Cloudy 80 26.7 67 19.4 64 64 NE 3 6 30 1016 10 16.09344 0 0
3:15 pm 15:15 Mostly Cloudy 81 27 66 18.7 60 60 Calm 30 1016 10 16.09344 0 0
3:35 pm 15:35 Cloudy 80 26.5 67 19.7 66 66 E 7 11 30 1016 10 16.09344 0 0
3:55 pm 15:55 Partly Cloudy 79 26.1 66 18.9 65 65 SE 3 6 30 1016 10 16.09344 0 0
4:15 pm 16:15 Partly Cloudy 81 27 67 19.3 63 63 ESE 3 6 30 1016 10 16.09344 0 0
4:35 pm 16:35 Mostly Cloudy 80 26.7 66 18.9 62 62 ENE 3 6 30 1016 10 16.09344 0 0
4:55 pm 16:55 Partly Cloudy 80 26.4 65 18.6 62 62 E 5 7 30 1016 10 16.09344 0 0
5:15 pm 17:15 Sunny 80 26.6 66 18.7 62 62 E 6 9 30 1016 10 16.09344 0 0
5:35 pm 17:35 Sunny 80 26.6 66 19.1 64 64 ESE 8 13 30 1016 10 16.09344 0 0
5:55 pm 17:55 Sunny 80 26.6 67 19.2 64 64 E 7 11 30 1016 10 16.09344 0 0
6:15 pm 18:15 Sunny 79 26.1 66 18.8 64 64 E 6 9 30 1016 10 16.09344 0 0
6:35 pm 18:35 Sunny 78 25.3 67 19.2 69 69 ESE 6 9 30 1016 10 16.09344 0 0
6:55 pm 18:55 Sunny 78 25.3 67 19.6 71 71 ESE 5 7 30 1016 10 16.09344 0 0
7:15 pm 19:15 Sunny 77 25.2 67 19.4 70 70 SE 3 6 30 1016 10 16.09344 0 0
7:35 pm 19:35 Sunny 77 24.9 68 20 74 74 SE 5 7 30 1016 10 16.09344 0 0
7:55 pm 19:55 Sunny 76 24.4 68 19.9 76 76 SSE 3 6 30 1016 10 16.09344 0 0
8:15 pm 20:15 Sunny 74 23.1 68 20.1 83 83 SE 3 6 30.03 1017 10 16.09344 0 0
8:35 pm 20:35 Clear 71 21.8 68 20.2 91 91 SE 3 6 30.03 1017 10 16.09344 0 0
8:55 pm 20:55 Clear 69 20.8 67 19.6 93 93 ESE 5 7 30.03 1017 10 16.09344 0 0
9:15 pm 21:15 Clear 69 20.7 67 19.6 93 93 SE 3 6 30.03 1017 10 16.09344 0 0
9:35 pm 21:35 Clear 69 20.3 66 19 92 92 SE 3 6 30.06 1018 10 16.09344 0 0
9:55 pm 21:55 Clear 67 19.7 66 19 96 96 Calm 30.06 1018 10 16.09344 0 0
10:15 pm 22:15 Clear 66 19 65 18.6 98 98 ESE 6 9 30.06 1018 10 16.09344 0 0
10:35 pm 22:35 Clear 66 18.9 65 18.5 98 98 ESE 5 7 30.06 1018 10 16.09344 0 0
10:55 pm 22:55 Clear 67 19.5 65 18.5 94 94 SE 6 9 30.06 1018 10 16.09344 0 0
11:15 pm 23:15 Clear 66 19.1 65 18.4 96 96 SE 5 7 30.06 1018 10 16.09344 0 0
11:35 pm 23:35 Clear 66 19 65 18.5 97 97 SE 6 9 30.09 1019 10 16.09344 0 0
11:55 pm 23:55 Clear 67 19.2 65 18.2 94 94 SE 3 6 30.09 1019 10 16.09344 0 0

Powered by AerisWeather